| time (UTC) | temp F | wind direction | speed MPH | gust MPH | rain 1hr in | rain 24hr in | rain mn in | humidity % | barometer mb |
| 20260510234611 | 56 | 0 | 0.0 | 0.0 | 0.00 | 0.21 | 0.01 | 92 | 1017.2 |
| 20260510233111 | 56 | 0 | 0.0 | 0.0 | 0.00 | 0.21 | 0.01 | 92 | 1017.3 |
| 20260510231611 | 58 | 0 | 0.0 | 0.0 | 0.00 | 0.21 | 0.01 | 93 | 1017.5 |
| 20260510230104 | 58 | 0 | 0.0 | 0.0 | 0.01 | 0.21 | 0.01 | 93 | 1017.5 |
| 20260510224609 | 58 | 0 | 0.0 | 0.0 | 0.01 | 0.21 | 0.01 | 92 | 1017.2 |
| 20260510223107 | 57 | 0 | 0.0 | 0.0 | 0.01 | 0.21 | 0.01 | 93 | 1017.4 |
| 20260510221558 | 57 | 0 | 0.0 | 0.0 | 0.01 | 0.21 | 0.01 | 92 | 1017.3 |
| 20260510220058 | 58 | 0 | 0.0 | 0.0 | 0.00 | 0.20 | 0.00 | 92 | 1017.5 |
| 20260510214600 | 58 | 0 | 0.0 | 0.0 | 0.00 | 0.20 | 0.20 | 92 | 1017.4 |
| 20260510213058 | 58 | 0 | 0.0 | 0.0 | 0.00 | 0.20 | 0.20 | 92 | 1017.4 |
| 20260510211601 | 58 | 0 | 0.0 | 0.0 | 0.00 | 0.20 | 0.20 | 92 | 1017.3 |
| 20260510210059 | 58 | 0 | 0.0 | 0.0 | 0.00 | 0.20 | 0.20 | 92 | 1017.3 |
| 20260510204600 | 58 | 0 | 0.0 | 0.0 | 0.00 | 0.20 | 0.20 | 92 | 1017.4 |
| 20260510203058 | 58 | 0 | 0.0 | 0.0 | 0.00 | 0.20 | 0.20 | 92 | 1017.4 |
| 20260510201630 | 58 | 0 | 0.0 | 0.0 | 0.00 | 0.20 | 0.20 | 92 | 1017.5 |
| 20260510200059 | 58 | 0 | 0.0 | 0.0 | 0.00 | 0.20 | 0.20 | 92 | 1017.6 |
| 20260510194605 | 58 | 0 | 0.0 | 0.0 | 0.00 | 0.20 | 0.20 | 92 | 1017.5 |
| 20260510193058 | 58 | 0 | 0.0 | 0.0 | 0.00 | 0.20 | 0.20 | 92 | 1017.5 |
| 20260510191607 | 58 | 0 | 0.0 | 0.0 | 0.00 | 0.20 | 0.20 | 92 | 1017.5 |
| 20260510190108 | 59 | 0 | 0.0 | 0.0 | 0.00 | 0.20 | 0.20 | 92 | 1017.4 |
| 20260510184559 | 59 | 0 | 0.0 | 0.0 | 0.00 | 0.20 | 0.20 | 92 | 1017.2 |
| 20260510183112 | 59 | 0 | 0.0 | 0.0 | 0.00 | 0.20 | 0.20 | 92 | 1017.2 |
| 20260510181559 | 59 | 0 | 0.0 | 0.0 | 0.01 | 0.20 | 0.20 | 92 | 1017.0 |
| 20260510180058 | 59 | 0 | 0.0 | 0.0 | 0.01 | 0.20 | 0.20 | 92 | 1016.9 |
| 20260510174604 | 59 | 0 | 0.0 | 0.0 | 0.01 | 0.20 | 0.20 | 92 | 1016.9 |
| 20260510173102 | 59 | 0 | 0.0 | 0.0 | 0.01 | 0.20 | 0.20 | 92 | 1016.9 |
| 20260510171558 | 59 | 0 | 0.0 | 0.0 | 0.00 | 0.19 | 0.19 | 92 | 1016.8 |
| 20260510170105 | 59 | 0 | 0.0 | 0.0 | 0.00 | 0.19 | 0.19 | 92 | 1016.8 |
| 20260510164558 | 59 | 0 | 0.0 | 0.0 | 0.00 | 0.19 | 0.19 | 92 | 1016.7 |
| 20260510163102 | 60 | 0 | 0.0 | 0.0 | 0.00 | 0.19 | 0.19 | 92 | 1016.6 |
| 20260510161608 | 60 | 0 | 0.0 | 0.0 | 0.00 | 0.19 | 0.19 | 92 | 1016.5 |
| 20260510160135 | 60 | 0 | 0.0 | 0.0 | 0.00 | 0.19 | 0.19 | 92 | 1016.6 |
| 20260510154613 | 60 | 0 | 0.0 | 0.0 | 0.00 | 0.19 | 0.19 | 92 | 1016.6 |
| 20260510153058 | 60 | 0 | 0.0 | 0.0 | 0.00 | 0.19 | 0.19 | 91 | 1016.7 |
| 20260510151607 | 60 | 0 | 0.0 | 0.0 | 0.00 | 0.19 | 0.19 | 91 | 1016.8 |
| 20260510150059 | 60 | 0 | 0.0 | 0.0 | 0.00 | 0.19 | 0.19 | 91 | 1016.9 |
| 20260510144600 | 60 | 0 | 0.0 | 0.0 | 0.00 | 0.19 | 0.19 | 91 | 1016.9 |
| 20260510143104 | 61 | 0 | 0.0 | 0.0 | 0.00 | 0.19 | 0.19 | 91 | 1016.8 |
| 20260510141558 | 61 | 0 | 0.0 | 0.0 | 0.00 | 0.19 | 0.19 | 91 | 1016.8 |
| 20260510140109 | 61 | 0 | 0.0 | 0.0 | 0.00 | 0.19 | 0.19 | 91 | 1017.0 |
| 20260510134607 | 61 | 0 | 0.0 | 2.0 | 0.00 | 0.19 | 0.19 | 91 | 1017.0 |
| 20260510133100 | 61 | 0 | 0.0 | 0.0 | 0.00 | 0.19 | 0.19 | 90 | 1017.0 |
| 20260510131600 | 62 | 0 | 0.0 | 0.0 | 0.00 | 0.19 | 0.19 | 90 | 1017.0 |
| 20260510130057 | 62 | 0 | 0.0 | 0.0 | 0.00 | 0.19 | 0.19 | 90 | 1017.0 |
| 20260510124605 | 63 | 0 | 0.0 | 0.0 | 0.00 | 0.19 | 0.19 | 89 | 1017.1 |
| 20260510123058 | 63 | 0 | 0.0 | 0.0 | 0.00 | 0.19 | 0.19 | 89 | 1017.0 |
| 20260510121558 | 64 | 0 | 0.0 | 0.0 | 0.00 | 0.19 | 0.19 | 89 | 1017.0 |
| 20260510120057 | 65 | 0 | 0.0 | 0.0 | 0.00 | 0.19 | 0.19 | 88 | 1017.1 |
| 20260510114600 | 66 | 0 | 0.0 | 0.0 | 0.00 | 0.19 | 0.19 | 86 | 1017.1 |
| 20260510113103 | 68 | 0 | 0.0 | 0.0 | 0.00 | 0.19 | 0.19 | 84 | 1017.2 |
| 20260510111610 | 70 | 0 | 0.0 | 0.0 | 0.00 | 0.19 | 0.19 | 82 | 1017.1 |
| 20260510110100 | 71 | 0 | 0.0 | 0.0 | 0.00 | 0.19 | 0.19 | 80 | 1017.0 |
| 20260510104604 | 71 | 0 | 0.0 | 0.0 | 0.00 | 0.19 | 0.19 | 82 | 1017.2 |
| 20260510103102 | 70 | 0 | 0.0 | 0.0 | 0.00 | 0.19 | 0.19 | 80 | 1017.0 |
| 20260510101600 | 72 | 0 | 0.0 | 0.0 | 0.00 | 0.19 | 0.19 | 79 | 1017.0 |
| 20260510100058 | 73 | 0 | 0.0 | 0.0 | 0.00 | 0.19 | 0.19 | 74 | 1017.0 |
| 20260510094559 | 73 | 0 | 0.0 | 0.0 | 0.00 | 0.19 | 0.19 | 74 | 1017.1 |
| 20260510093111 | 73 | 0 | 0.0 | 0.0 | 0.00 | 0.19 | 0.19 | 77 | 1017.0 |
| 20260510091559 | 72 | 0 | 0.0 | 0.0 | 0.00 | 0.19 | 0.19 | 77 | 1017.0 |
| 20260510090116 | 72 | 0 | 0.0 | 0.0 | 0.00 | 0.19 | 0.19 | 81 | 1017.0 |
| 20260510084557 | 70 | 0 | 0.0 | 1.0 | 0.00 | 0.19 | 0.19 | 81 | 1016.8 |
| 20260510083111 | 69 | 0 | 0.0 | 3.0 | 0.00 | 0.19 | 0.19 | 82 | 1016.7 |
| 20260510081609 | 70 | 0 | 0.0 | 0.0 | 0.00 | 0.19 | 0.19 | 79 | 1016.5 |
| 20260510080100 | 70 | 0 | 0.0 | 0.0 | 0.00 | 0.19 | 0.19 | 78 | 1016.3 |
| 20260510074605 | 71 | 0 | 0.0 | 0.0 | 0.00 | 0.19 | 0.19 | 75 | 1016.2 |
| 20260510073059 | 71 | 0 | 0.0 | 0.0 | 0.00 | 0.19 | 0.19 | 68 | 1016.3 |
| 20260510071557 | 70 | 0 | 0.0 | 0.0 | 0.00 | 0.19 | 0.19 | 72 | 1016.3 |
| 20260510070059 | 70 | 0 | 0.0 | 0.0 | 0.00 | 0.19 | 0.19 | 74 | 1016.1 |
| 20260510064609 | 70 | 0 | 0.0 | 0.0 | 0.00 | 0.19 | 0.19 | 69 | 1016.0 |
| 20260510063101 | 69 | 0 | 0.0 | 0.0 | 0.00 | 0.19 | 0.19 | 65 | 1015.7 |
| 20260510061603 | 68 | 0 | 0.0 | 0.0 | 0.00 | 0.19 | 0.19 | 66 | 1015.7 |
| 20260510060059 | 66 | 0 | 1.0 | 11.0 | 0.00 | 0.19 | 0.19 | 71 | 1015.7 |
| 20260510054557 | 66 | 0 | 0.0 | 0.0 | 0.00 | 0.19 | 0.19 | 70 | 1015.8 |
| 20260510053058 | 66 | 0 | 0.0 | 3.0 | 0.00 | 0.19 | 0.19 | 70 | 1015.8 |
| 20260510051605 | 65 | 140 | 0.0 | 1.0 | 0.00 | 0.19 | 0.19 | 73 | 1015.9 |
| 20260510050100 | 66 | 0 | 0.0 | 5.0 | 0.01 | 0.19 | 0.19 | 70 | 1015.8 |
| 20260510044639 | 65 | 0 | 0.0 | 3.0 | 0.01 | 0.19 | 0.19 | 72 | 1015.6 |
| 20260510043101 | 65 | 211 | 0.0 | 8.0 | 0.01 | 0.19 | 0.19 | 73 | 1015.6 |
| 20260510041600 | 66 | 0 | 0.0 | 8.0 | 0.01 | 0.19 | 0.19 | 74 | 1015.4 |
| 20260510040110 | 65 | 0 | 0.0 | 10.0 | 0.00 | 0.18 | 0.18 | 73 | 1015.6 |
| 20260510034603 | 64 | 190 | 2.0 | 11.0 | 0.02 | 0.18 | 0.18 | 78 | 1014.9 |
| 20260510033102 | 61 | 173 | 2.0 | 11.0 | 0.03 | 0.18 | 0.18 | 86 | 1014.7 |
| 20260510031603 | 61 | 0 | 1.0 | 10.0 | 0.03 | 0.18 | 0.18 | 87 | 1015.2 |
| 20260510030103 | 61 | 0 | 1.0 | 14.0 | 0.03 | 0.18 | 0.18 | 88 | 1016.1 |
| 20260510024606 | 61 | 146 | 4.0 | 13.0 | 0.01 | 0.16 | 0.16 | 88 | 1017.0 |
| 20260510023104 | 61 | 126 | 5.0 | 12.0 | 0.01 | 0.15 | 0.15 | 89 | 1017.0 |
| 20260510021600 | 60 | 146 | 3.0 | 12.0 | 0.01 | 0.15 | 0.15 | 90 | 1017.2 |
| 20260510020101 | 60 | 131 | 1.0 | 5.0 | 0.02 | 0.15 | 0.15 | 90 | 1017.4 |
| 20260510014604 | 60 | 0 | 0.0 | 2.0 | 0.06 | 0.15 | 0.15 | 90 | 1018.3 |
| 20260510013057 | 60 | 0 | 0.0 | 2.0 | 0.10 | 0.14 | 0.14 | 91 | 1019.2 |
| 20260510011601 | 60 | 0 | 0.0 | 1.0 | 0.12 | 0.14 | 0.14 | 90 | 1018.8 |
| 20260510010137 | 60 | 0 | 0.0 | 4.0 | 0.13 | 0.13 | 0.13 | 90 | 1018.8 |
| 20260510004607 | 60 | 268 | 2.0 | 9.0 | 0.09 | 0.09 | 0.09 | 90 | 1019.3 |
| 20260510003059 | 60 | 311 | 1.0 | 15.0 | 0.04 | 0.04 | 0.04 | 90 | 1019.4 |
| 20260510001605 | 60 | 302 | 2.0 | 21.0 | 0.02 | 0.02 | 0.02 | 89 | 1019.5 |